Date String (YYYY-MM-DD hh:mm:ss) UTC,Instrument flags,absolute air pressure of the measurement (hPa),sample flow rate (lpm),inlet stack bypass flow (lpm),air temperature of the measurement (°C),ambient temperature measured by the external sensor (°C),aerosol sample conditioner tube jacket temperature (°C),OPC LED temperature (°C),internal box temperature (°C),relative humidity of the measurement (%),span deviation,mass concentration of particles derived from Lorenz-Mie calculation of OPC scattering (μg/m³),mass concentration of particles derived from Lorenz-Mie calculation of OPC scattering (μg/m³),mass concentration of particles derived from Lorenz-Mie calculation of OPC scattering (μg/m³)
DateTimeUTC,F1_M11,P_M11,Q1_M11,Q2_M11,T1_M11,T2_M11,T3_M11,T4_M11,T5_M11,U1_M11,ZSPAN_M11,X0_M11,X2_M11,X1_M11
2023-08-21 11:00:00,SystemResetWarning,0834.7,5.01,000.00,028.3,027.1,000.0,036.8,030.1,20.8,0002.0,0013.54,0006.80,0005.70
2023-08-21 11:01:00,SystemResetWarning,0834.7,4.99,000.00,028.4,027.2,000.0,036.8,030.1,20.8,0002.0,0013.47,0006.85,0005.72
2023-08-21 11:02:00,SystemResetWarning,0835.1,4.99,000.00,028.4,027.3,000.0,036.8,030.1,20.7,0002.0,0013.76,0006.88,0005.75
2023-08-21 11:03:00,SystemResetWarning,0835.1,4.99,000.00,028.4,027.3,000.0,036.9,030.2,20.6,0001.6,0014.03,0006.91,0005.77
2023-08-21 11:04:00,SystemResetWarning,0834.8,5.01,000.00,028.5,027.4,000.0,036.9,030.2,20.6,0001.8,0014.81,0006.93,0005.82
2023-08-21 11:05:00,SystemResetWarning,0835.1,5.01,000.00,028.5,027.5,000.0,036.9,030.3,20.5,0001.8,0015.55,0006.95,0005.85
2023-08-21 11:06:00,SystemResetWarning,0835.3,5.01,000.00,028.6,027.5,000.0,036.9,030.3,20.4,0001.8,0015.35,0006.94,0005.86
2023-08-21 11:07:00,SystemResetWarning,0835.1,4.99,000.00,028.6,027.6,000.0,037.0,030.3,20.4,0001.9,0014.95,0006.93,0005.88
2023-08-21 11:08:00,SystemResetWarning,0835.0,4.99,000.00,028.6,027.6,000.0,037.0,030.3,20.2,0001.8,0014.62,0006.91,0005.90
2023-08-21 11:09:00,SystemResetWarning,0835.3,5.00,000.00,028.6,027.6,000.0,037.0,030.4,19.9,0002.0,0014.75,0006.94,0005.91
2023-08-21 11:10:00,SystemResetWarning,0835.0,5.00,000.00,028.7,027.2,000.0,037.0,030.3,19.6,0001.8,0014.84,0007.00,0005.94
2023-08-21 11:11:00,SystemResetWarning,0834.8,5.00,000.00,028.6,025.1,000.0,036.9,030.0,19.2,0001.5,0014.27,0007.01,0005.95
2023-08-21 11:12:00,SystemResetWarning,0834.6,5.01,000.00,028.5,023.7,000.0,036.8,029.7,19.2,0001.7,0015.06,0007.03,0005.98
2023-08-21 11:13:00,SystemResetWarning,0834.7,5.01,000.00,028.4,023.6,000.0,036.8,029.5,19.4,0002.0,0015.40,0007.01,0005.98
2023-08-21 11:14:00,SystemResetWarning,0834.6,5.01,000.00,028.2,023.9,000.0,036.8,029.4,19.6,0001.8,0015.10,0006.95,0005.96
2023-08-21 11:15:00,SystemResetWarning,0834.6,5.00,000.00,028.2,024.4,000.0,036.8,029.4,19.9,0001.6,0014.88,0006.90,0005.92
2023-08-21 11:16:00,SystemResetWarning,0834.6,5.00,000.00,028.1,024.8,000.0,036.8,029.5,19.7,0002.0,0015.16,0006.91,0005.90
2023-08-21 11:17:00,SystemResetWarning,0834.7,5.00,000.00,028.1,025.3,000.0,036.8,029.6,19.7,0002.0,0016.72,0006.86,0005.86
2023-08-21 11:18:00,SystemResetWarning,0834.7,5.00,000.00,028.1,025.7,000.0,036.8,029.7,19.7,0002.0,0016.50,0006.75,0005.78
2023-08-21 11:19:00,SystemResetWarning,0834.6,4.99,000.00,028.1,026.0,000.0,036.8,029.7,19.9,0002.5,0016.34,0006.66,0005.72
2023-08-21 11:20:00,SystemResetWarning,0834.6,5.00,000.00,028.2,026.2,000.0,036.8,029.8,20.0,0002.6,0015.97,0006.59,0005.67
2023-08-21 11:21:00,SystemResetWarning,0834.7,5.00,000.00,028.2,026.5,000.0,036.8,029.9,20.0,0002.9,0015.78,0006.51,0005.62
2023-08-21 11:22:00,SystemResetWarning,0834.6,5.00,000.00,028.2,026.6,000.0,036.8,029.9,20.0,0002.8,0016.32,0006.42,0005.55
2023-08-21 11:23:00,SystemResetWarning,0834.7,5.01,000.00,028.2,026.8,000.0,036.8,029.9,19.8,0002.6,0015.79,0006.34,0005.48
2023-08-21 11:24:00,SystemResetWarning,0834.6,5.01,000.00,028.3,026.9,000.0,036.8,030.0,19.4,0002.5,0015.16,0006.29,0005.42
2023-08-21 11:25:00,SystemResetWarning,0834.7,5.00,000.00,028.3,027.0,000.0,036.8,030.0,19.3,0002.9,0015.63,0006.30,0005.39
2023-08-21 11:26:00,SystemResetWarning,0834.6,4.99,000.00,028.3,027.1,000.0,036.8,030.1,19.6,0002.9,0015.46,0006.33,0005.36
2023-08-21 11:27:00,SystemResetWarning,0834.7,4.99,000.00,028.4,027.2,000.0,036.8,030.1,19.5,0002.4,0015.41,0006.29,0005.32
2023-08-21 11:28:00,SystemResetWarning,0834.9,5.00,000.00,028.4,027.3,000.0,036.9,030.1,19.5,0002.2,0013.93,0006.27,0005.31
2023-08-21 11:29:00,SystemResetWarning,0835.0,4.99,000.00,028.5,027.3,000.0,036.9,030.2,19.4,0002.2,0014.33,0006.34,0005.34
2023-08-21 11:30:00,SystemResetWarning,0835.1,5.00,000.00,028.5,027.4,000.0,036.9,030.2,19.5,0001.7,0014.74,0006.41,0005.36
2023-08-21 11:31:00,SystemResetWarning,0834.9,5.00,000.00,028.5,027.5,000.0,036.9,030.2,19.5,0001.0,0014.87,0006.47,0005.38
2023-08-21 11:32:00,SystemResetWarning,0834.9,5.01,000.00,028.6,027.5,000.0,036.9,030.3,19.4,0000.4,0014.96,0006.49,0005.39
2023-08-21 11:33:00,SystemResetWarning,0835.2,5.00,000.00,028.6,027.6,000.0,037.0,030.3,19.5,0000.2,0014.96,0006.57,0005.42
2023-08-21 11:34:00,SystemResetWarning,0835.2,4.99,000.00,028.6,027.6,000.0,037.0,030.3,19.4,0000.4,0014.69,0006.71,0005.50
2023-08-21 11:35:00,SystemResetWarning,0835.1,5.00,000.00,028.7,027.7,000.0,037.0,030.4,19.4,0000.7,0015.13,0006.79,0005.54
2023-08-21 11:36:00,SystemResetWarning,0835.0,4.99,000.00,028.7,027.3,000.0,037.0,030.4,19.6,0000.8,0014.78,0006.79,0005.55
2023-08-21 11:37:00,SystemResetWarning,0834.9,5.01,000.00,028.6,025.4,000.0,036.9,030.1,20.5,0000.9,0014.47,0006.75,0005.57
2023-08-21 11:38:00,SystemResetWarning,0834.6,5.00,000.00,028.6,024.5,000.0,036.8,029.9,19.7,0001.2,0013.50,0006.74,0005.58
2023-08-21 11:39:00,SystemResetWarning,0834.6,5.02,000.00,028.5,024.6,000.0,036.8,029.7,19.5,0001.1,0013.10,0006.76,0005.59
2023-08-21 11:40:00,SystemResetWarning,0834.8,5.00,000.00,028.4,024.9,000.0,036.9,029.7,19.3,0001.2,0012.77,0006.75,0005.57
2023-08-21 11:41:00,SystemResetWarning,0835.0,5.00,000.00,028.3,025.3,000.0,036.9,029.7,18.8,0001.3,0012.56,0006.70,0005.53
2023-08-21 11:42:00,SystemResetWarning,0834.8,5.00,000.00,028.3,025.6,000.0,036.9,029.8,19.3,0001.3,0012.36,0006.60,0005.50
2023-08-21 11:43:00,SystemResetWarning,0834.7,5.01,000.00,028.3,026.0,000.0,036.9,029.9,19.2,0001.8,0012.85,0006.56,0005.46
2023-08-21 11:44:00,SystemResetWarning,0834.7,5.00,000.00,028.4,026.3,000.0,036.9,030.0,18.8,0002.3,0012.68,0006.48,0005.43
2023-08-21 11:45:00,SystemResetWarning,0834.7,5.00,000.00,028.4,026.5,000.0,036.9,030.0,19.4,0002.1,0012.74,0006.32,0005.37
2023-08-21 11:46:00,SystemResetWarning,0834.7,5.00,000.00,028.4,026.7,000.0,036.9,030.0,19.6,0001.9,0013.03,0006.22,0005.34
2023-08-21 11:47:00,SystemResetWarning,0834.7,5.00,000.00,028.4,026.9,000.0,036.9,030.1,19.5,0001.6,0012.87,0006.20,0005.32
2023-08-21 11:48:00,SystemResetWarning,0834.7,5.00,000.00,028.4,027.0,000.0,036.9,030.1,19.1,0001.5,0012.89,0006.18,0005.30
2023-08-21 11:49:00,SystemResetWarning,0834.7,5.00,000.00,028.5,027.2,000.0,036.9,030.2,19.2,0001.6,0013.07,0006.21,0005.29
2023-08-21 11:50:00,SystemResetWarning,0834.7,5.00,000.00,028.5,027.3,000.0,037.0,030.2,18.8,0002.1,0013.12,0006.21,0005.29
2023-08-21 11:51:00,SystemResetWarning,0834.7,5.01,000.00,028.5,027.4,000.0,037.0,030.3,18.7,0002.6,0013.59,0006.21,0005.31
2023-08-21 11:52:00,SystemResetWarning,0834.8,5.00,000.00,028.6,027.4,000.0,037.0,030.3,18.6,0002.6,0013.82,0006.26,0005.35
2023-08-21 11:53:00,SystemResetWarning,0834.8,4.99,000.00,028.6,027.5,000.0,037.0,030.3,18.6,0003.0,0013.99,0006.33,0005.38
2023-08-21 11:54:00,SystemResetWarning,0835.4,5.00,000.00,028.6,027.6,000.0,037.1,030.3,18.5,0003.1,0014.11,0006.37,0005.40
2023-08-21 11:55:00,SystemResetWarning,0834.9,5.00,000.00,028.7,027.6,000.0,037.1,030.4,18.6,0002.8,0013.60,0006.40,0005.42
2023-08-21 11:56:00,SystemResetWarning,0834.9,5.01,000.00,028.7,027.6,000.0,037.1,030.4,18.5,0002.9,0013.20,0006.42,0005.43
2023-08-21 11:57:00,SystemResetWarning,0835.1,4.98,000.00,028.7,026.0,000.0,037.0,030.2,18.6,0002.8,0012.46,0006.45,0005.45
2023-08-21 11:58:00,SystemResetWarning,0835.4,5.00,000.00,028.6,024.7,000.0,036.9,030.0,18.8,0003.0,0012.58,0006.43,0005.45
2023-08-21 11:59:00,SystemResetWarning,0835.3,5.01,000.00,028.5,024.6,000.0,036.9,029.9,19.2,0002.6,0013.45,0006.37,0005.44
